Location: Branche des Alpilles
(43.6087°N, 4.6976°E)
Time: 04:21:35
(UTC+00:00)

H-2A R/B - Pass Details

Date: 30 November 2020
Orbit: 734 x 836 km, 98.2° (Epoch: 24 January)

Event Time Altitude Azimuth Distance (km) Brightness Sun altitude
Rises 17:59:04 0° 147° (SSE) 3,324 5.1 -19.9°
Enters shadow 17:59:23 - 146° (SSE) 3,196 5.0 -20.0°
Exits shadow 18:06:40 45° 64° (ENE) 1,072 2.3 -21.3°
Drops below altitude 10° 18:11:22 10° 359° (N) 2,334 4.4 -22.1°
Sets 18:13:44 0° 353° (N) 3,249 5.2 -22.5°
